Time,TemperatureF,DewpointF,PressureIn,WindDirection,WindDirectionDegrees,WindSpeedMPH,WindSpeedGustMPH,Humidity,HourlyPrecipIn,Conditions,Clouds,dailyrainin,SoftwareType,DateUTC
2013-08-07 00:03:00,55.5,54.0,29.73,NNE,17,0.0,4.0,96,0.00,,,0.00,weatherlink.com 1.10,2013-08-07 09:03:00,
2013-08-07 00:18:00,55.5,54.0,29.73,NNE,26,0.0,4.0,96,0.00,,,0.00,weatherlink.com 1.10,2013-08-07 09:18:00,
2013-08-07 00:33:00,55.4,54.0,29.73,NNE,30,2.0,4.0,96,0.00,,,0.00,weatherlink.com 1.10,2013-08-07 09:33:00,
2013-08-07 00:48:00,55.3,54.0,29.73,NNE,19,4.0,5.0,96,0.00,,,0.00,weatherlink.com 1.10,2013-08-07 09:48:00,
2013-08-07 01:03:00,55.3,54.0,29.73,NNE,27,0.0,4.0,96,0.00,,,0.00,weatherlink.com 1.10,2013-08-07 10:03:00,
2013-08-07 01:18:00,55.1,54.0,29.72,NNE,27,0.0,4.0,96,0.00,,,0.00,weatherlink.com 1.10,2013-08-07 10:18:00,
2013-08-07 01:33:00,55.2,54.0,29.72,NNE,27,0.0,4.0,96,0.00,,,0.00,weatherlink.com 1.10,2013-08-07 10:33:00,
2013-08-07 01:48:00,55.3,54.0,29.72,NNE,28,0.0,4.0,96,0.00,,,0.00,weatherlink.com 1.10,2013-08-07 10:48:00,
2013-08-07 02:03:00,55.2,54.0,29.72,NNE,28,0.0,1.0,96,0.00,,,0.00,weatherlink.com 1.10,2013-08-07 11:03:00,
2013-08-07 02:18:00,55.3,54.0,29.72,ESE,111,1.0,2.0,96,0.00,,,0.00,weatherlink.com 1.10,2013-08-07 11:18:00,
2013-08-07 02:33:00,55.2,54.0,29.71,NNE,24,0.0,0.0,96,0.00,,,0.00,weatherlink.com 1.10,2013-08-07 11:33:00,
2013-08-07 02:48:00,55.3,54.0,29.71,NNE,24,0.0,4.0,96,0.00,,,0.00,weatherlink.com 1.10,2013-08-07 11:48:00,
2013-08-07 03:03:00,55.1,54.0,29.71,ENE,69,1.0,5.0,96,0.00,,,0.00,weatherlink.com 1.10,2013-08-07 12:03:00,
2013-08-07 03:18:00,55.2,54.0,29.71,NW,315,1.0,5.0,96,0.00,,,0.00,weatherlink.com 1.10,2013-08-07 12:18:00,
2013-08-07 03:33:00,55.0,54.0,29.71,NW,315,0.0,2.0,96,0.00,,,0.00,weatherlink.com 1.10,2013-08-07 12:33:00,
2013-08-07 03:48:00,55.1,54.0,29.71,NW,315,2.0,3.0,96,0.00,,,0.00,weatherlink.com 1.10,2013-08-07 12:48:00,
2013-08-07 04:03:00,55.0,54.0,29.70,NW,315,2.0,2.0,96,0.00,,,0.00,weatherlink.com 1.10,2013-08-07 13:03:00,
2013-08-07 04:18:00,55.1,54.0,29.70,NW,315,0.0,2.0,97,0.00,,,0.00,weatherlink.com 1.10,2013-08-07 13:18:00,
2013-08-07 04:33:00,55.0,54.0,29.70,NW,315,0.0,2.0,97,0.00,,,0.00,weatherlink.com 1.10,2013-08-07 13:33:00,
2013-08-07 04:48:00,55.0,54.0,29.70,NE,45,1.0,4.0,96,0.00,,,0.00,weatherlink.com 1.10,2013-08-07 13:48:00,
2013-08-07 05:03:00,55.0,54.0,29.71,NE,45,0.0,2.0,97,0.00,,,0.00,weatherlink.com 1.10,2013-08-07 14:03:00,
2013-08-07 05:18:00,54.9,54.0,29.70,NNE,15,2.0,3.0,97,0.00,,,0.00,weatherlink.com 1.10,2013-08-07 14:18:00,
2013-08-07 05:33:00,54.8,54.0,29.71,NNE,15,0.0,2.0,97,0.00,,,0.00,weatherlink.com 1.10,2013-08-07 14:33:00,
2013-08-07 05:48:00,54.9,54.0,29.71,NNE,15,0.0,4.0,97,0.00,,,0.00,weatherlink.com 1.10,2013-08-07 14:48:00,
2013-08-07 06:03:00,55.0,54.0,29.71,NNE,15,2.0,2.0,97,0.00,,,0.00,weatherlink.com 1.10,2013-08-07 15:03:00,
2013-08-07 06:18:00,54.9,54.0,29.72,North,5,1.0,5.0,97,0.00,,,0.00,weatherlink.com 1.10,2013-08-07 15:18:00,
2013-08-07 06:33:00,54.9,54.0,29.72,North,5,0.0,4.0,97,0.00,,,0.00,weatherlink.com 1.10,2013-08-07 15:33:00,
2013-08-07 06:48:00,55.1,54.0,29.73,North,5,1.0,5.0,97,0.00,,,0.00,weatherlink.com 1.10,2013-08-07 15:48:00,
2013-08-07 07:03:00,54.3,53.0,29.73,WNW,289,1.0,5.0,96,0.00,,,0.00,weatherlink.com 1.10,2013-08-07 16:03:00,
2013-08-07 07:18:00,54.4,54.0,29.72,WNW,289,0.0,4.0,97,0.00,,,0.00,weatherlink.com 1.10,2013-08-07 16:18:00,
2013-08-07 07:33:00,54.2,53.0,29.72,WNW,289,5.0,5.0,97,0.00,,,0.00,weatherlink.com 1.10,2013-08-07 16:33:00,
2013-08-07 07:48:00,54.3,54.0,29.72,WNW,289,0.0,2.0,97,0.00,,,0.00,weatherlink.com 1.10,2013-08-07 16:48:00,
2013-08-07 08:03:00,54.2,53.0,29.72,WNW,289,0.0,2.0,97,0.00,,,0.00,weatherlink.com 1.10,2013-08-07 17:03:00,
2013-08-07 08:18:00,54.1,53.0,29.72,WNW,289,0.0,4.0,97,0.00,,,0.00,weatherlink.com 1.10,2013-08-07 17:18:00,
2013-08-07 08:33:00,53.6,53.0,29.71,WNW,289,0.0,4.0,97,0.00,,,0.00,weatherlink.com 1.10,2013-08-07 17:33:00,
2013-08-07 08:48:00,53.6,53.0,29.71,WNW,289,2.0,3.0,97,0.00,,,0.00,weatherlink.com 1.10,2013-08-07 17:48:00,
2013-08-07 09:03:00,53.5,53.0,29.72,WNW,289,1.0,2.0,97,0.00,,,0.00,weatherlink.com 1.10,2013-08-07 18:03:00,
2013-08-07 09:18:00,54.1,53.0,29.72,WNW,289,3.0,4.0,97,0.00,,,0.00,weatherlink.com 1.10,2013-08-07 18:18:00,
2013-08-07 09:33:00,53.4,53.0,29.72,NW,311,4.0,5.0,97,0.00,,,0.00,weatherlink.com 1.10,2013-08-07 18:33:00,
2013-08-07 09:48:00,53.0,52.0,29.72,NNW,346,2.0,5.0,97,0.00,,,0.00,weatherlink.com 1.10,2013-08-07 18:48:00,
2013-08-07 10:03:00,52.8,52.0,29.72,WNW,303,0.0,6.0,97,0.00,,,0.00,weatherlink.com 1.10,2013-08-07 19:03:00,
2013-08-07 10:18:00,52.5,52.0,29.71,WNW,303,4.0,5.0,97,0.00,,,0.00,weatherlink.com 1.10,2013-08-07 19:18:00,
2013-08-07 10:33:00,52.5,52.0,29.71,WNW,303,4.0,4.0,97,0.00,,,0.00,weatherlink.com 1.10,2013-08-07 19:33:00,
2013-08-07 10:48:00,52.7,52.0,29.71,WNW,303,0.0,4.0,98,0.00,,,0.00,weatherlink.com 1.10,2013-08-07 19:48:00,
2013-08-07 11:03:00,53.3,53.0,29.71,NW,306,1.0,5.0,97,0.00,,,0.00,weatherlink.com 1.10,2013-08-07 20:03:00,
2013-08-07 11:18:00,52.8,52.0,29.70,NW,306,1.0,3.0,97,0.00,,,0.00,weatherlink.com 1.10,2013-08-07 20:18:00,
2013-08-07 11:33:00,53.3,53.0,29.70,NW,306,0.0,4.0,97,0.00,,,0.00,weatherlink.com 1.10,2013-08-07 20:33:00,
2013-08-07 11:48:00,53.2,52.0,29.70,NW,306,0.0,4.0,97,0.00,,,0.00,weatherlink.com 1.10,2013-08-07 20:48:00,
2013-08-07 12:03:00,54.4,54.0,29.70,NW,306,0.0,2.0,98,0.00,,,0.00,weatherlink.com 1.10,2013-08-07 21:03:00,
2013-08-07 12:18:00,55.5,55.0,29.70,ESE,111,5.0,7.0,98,0.00,,,0.00,weatherlink.com 1.10,2013-08-07 21:18:00,
2013-08-07 12:33:00,56.3,56.0,29.70,ESE,103,1.0,5.0,98,0.00,,,0.00,weatherlink.com 1.10,2013-08-07 21:33:00,
2013-08-07 12:48:00,56.1,55.0,29.69,SE,126,2.0,8.0,97,0.00,,,0.00,weatherlink.com 1.10,2013-08-07 21:48:00,
2013-08-07 13:03:00,56.4,56.0,29.69,SSE,147,2.0,4.0,97,0.00,,,0.00,weatherlink.com 1.10,2013-08-07 22:03:00,
2013-08-07 13:18:00,56.2,55.0,29.69,WNW,288,3.0,6.0,96,0.00,,,0.00,weatherlink.com 1.10,2013-08-07 22:18:00,
2013-08-07 13:33:00,55.8,55.0,29.69,WNW,288,1.0,3.0,96,0.00,,,0.00,weatherlink.com 1.10,2013-08-07 22:33:00,
2013-08-07 13:48:00,56.0,55.0,29.69,WNW,297,2.0,5.0,96,0.00,,,0.00,weatherlink.com 1.10,2013-08-07 22:48:00,
2013-08-07 14:03:00,55.7,55.0,29.69,WNW,297,1.0,3.0,96,0.00,,,0.00,weatherlink.com 1.10,2013-08-07 23:03:00,
2013-08-07 14:18:00,55.9,55.0,29.69,WNW,297,0.0,4.0,96,0.00,,,0.00,weatherlink.com 1.10,2013-08-07 23:18:00,
2013-08-07 14:34:00,56.3,55.0,29.69,WNW,297,0.0,1.0,95,0.00,,,0.00,weatherlink.com 1.10,2013-08-07 23:34:00,
2013-08-07 14:49:00,56.3,55.0,29.68,WNW,297,1.0,2.0,96,0.00,,,0.00,weatherlink.com 1.10,2013-08-07 23:49:00,
2013-08-07 15:04:00,56.7,55.0,29.68,ESE,120,5.0,5.0,95,0.00,,,0.00,weatherlink.com 1.10,2013-08-08 00:04:00,
2013-08-07 15:19:00,56.7,55.0,29.68,ESE,122,0.0,5.0,95,0.00,,,0.00,weatherlink.com 1.10,2013-08-08 00:19:00,
2013-08-07 15:34:00,56.8,55.0,29.67,ESE,122,0.0,4.0,94,0.00,,,0.00,weatherlink.com 1.10,2013-08-08 00:34:00,
2013-08-07 15:49:00,56.9,55.0,29.67,ESE,122,0.0,2.0,94,0.00,,,0.00,weatherlink.com 1.10,2013-08-08 00:49:00,
2013-08-07 16:04:00,56.6,55.0,29.67,ESE,122,2.0,5.0,94,0.00,,,0.00,weatherlink.com 1.10,2013-08-08 01:04:00,
2013-08-07 16:19:00,56.8,55.0,29.67,ESE,121,3.0,4.0,94,0.00,,,0.00,weatherlink.com 1.10,2013-08-08 01:19:00,
2013-08-07 16:34:00,57.0,55.0,29.66,ESE,119,2.0,3.0,93,0.00,,,0.00,weatherlink.com 1.10,2013-08-08 01:34:00,
2013-08-07 16:49:00,56.5,55.0,29.66,East,93,0.0,2.0,94,0.00,,,0.00,weatherlink.com 1.10,2013-08-08 01:49:00,
2013-08-07 17:04:00,56.5,55.0,29.66,East,93,2.0,2.0,94,0.00,,,0.00,weatherlink.com 1.10,2013-08-08 02:04:00,
2013-08-07 17:19:00,55.6,54.0,29.66,West,281,2.0,5.0,94,0.00,,,0.00,weatherlink.com 1.10,2013-08-08 02:19:00,
2013-08-07 17:34:00,56.1,55.0,29.66,West,281,3.0,4.0,95,0.00,,,0.00,weatherlink.com 1.10,2013-08-08 02:34:00,
2013-08-07 17:49:00,55.4,54.0,29.66,West,281,3.0,4.0,95,0.00,,,0.00,weatherlink.com 1.10,2013-08-08 02:49:00,
2013-08-07 18:04:00,55.4,54.0,29.66,NW,304,2.0,5.0,95,0.00,,,0.00,weatherlink.com 1.10,2013-08-08 03:04:00,
2013-08-07 18:19:00,54.5,53.0,29.66,WNW,303,1.0,4.0,94,0.00,,,0.00,weatherlink.com 1.10,2013-08-08 03:19:00,
2013-08-07 18:34:00,55.0,54.0,29.65,NW,311,4.0,5.0,95,0.00,,,0.00,weatherlink.com 1.10,2013-08-08 03:34:00,
2013-08-07 18:49:00,54.1,53.0,29.65,NW,311,3.0,3.0,95,0.00,,,0.00,weatherlink.com 1.10,2013-08-08 03:49:00,
2013-08-07 19:04:00,53.5,52.0,29.65,NW,304,2.0,6.0,95,0.00,,,0.00,weatherlink.com 1.10,2013-08-08 04:04:00,
2013-08-07 19:19:00,53.4,52.0,29.64,NW,304,0.0,4.0,95,0.00,,,0.00,weatherlink.com 1.10,2013-08-08 04:19:00,
2013-08-07 19:34:00,53.1,52.0,29.65,NW,304,0.0,4.0,95,0.00,,,0.00,weatherlink.com 1.10,2013-08-08 04:34:00,
2013-08-07 19:49:00,53.6,53.0,29.64,NW,304,0.0,2.0,96,0.00,,,0.00,weatherlink.com 1.10,2013-08-08 04:49:00,
2013-08-07 20:04:00,53.5,52.0,29.64,NW,304,0.0,2.0,96,0.00,,,0.00,weatherlink.com 1.10,2013-08-08 05:04:00,
2013-08-07 20:19:00,53.6,53.0,29.64,NW,304,1.0,1.0,96,0.00,,,0.00,weatherlink.com 1.10,2013-08-08 05:19:00,
2013-08-07 20:34:00,54.1,53.0,29.64,NW,304,0.0,0.0,97,0.00,,,0.00,weatherlink.com 1.10,2013-08-08 05:34:00,
2013-08-07 20:49:00,54.6,54.0,29.64,NW,304,0.0,1.0,97,0.00,,,0.00,weatherlink.com 1.10,2013-08-08 05:49:00,
2013-08-07 21:04:00,54.8,54.0,29.64,NW,304,0.0,4.0,96,0.00,,,0.00,weatherlink.com 1.10,2013-08-08 06:04:00,
2013-08-07 21:19:00,54.5,53.0,29.64,NW,304,0.0,0.0,96,0.00,,,0.00,weatherlink.com 1.10,2013-08-08 06:19:00,
2013-08-07 21:34:00,54.4,54.0,29.64,NW,304,0.0,0.0,97,0.00,,,0.00,weatherlink.com 1.10,2013-08-08 06:34:00,
2013-08-07 21:49:00,54.6,54.0,29.64,NW,304,0.0,0.0,97,0.00,,,0.00,weatherlink.com 1.10,2013-08-08 06:49:00,
2013-08-07 22:04:00,54.3,54.0,29.64,NW,304,0.0,1.0,97,0.00,,,0.00,weatherlink.com 1.10,2013-08-08 07:04:00,
2013-08-07 22:19:00,54.1,53.0,29.64,NW,304,0.0,1.0,96,0.00,,,0.00,weatherlink.com 1.10,2013-08-08 07:19:00,
2013-08-07 22:34:00,53.9,53.0,29.64,NW,304,0.0,0.0,97,0.00,,,0.00,weatherlink.com 1.10,2013-08-08 07:34:00,
2013-08-07 22:49:00,53.2,52.0,29.64,NW,304,0.0,1.0,96,0.00,,,0.00,weatherlink.com 1.10,2013-08-08 07:49:00,
2013-08-07 23:04:00,52.8,52.0,29.64,North,360,3.0,5.0,97,0.00,,,0.00,weatherlink.com 1.10,2013-08-08 08:04:00,
2013-08-07 23:19:00,53.0,52.0,29.65,NW,306,4.0,5.0,97,0.00,,,0.00,weatherlink.com 1.10,2013-08-08 08:19:00,
2013-08-07 23:34:00,52.8,52.0,29.65,NNW,347,4.0,7.0,97,0.00,,,0.00,weatherlink.com 1.10,2013-08-08 08:34:00,
2013-08-07 23:49:00,52.3,52.0,29.66,NNW,329,1.0,6.0,97,0.00,,,0.00,weatherlink.com 1.10,2013-08-08 08:49:00,